map of CJA home
Great Circle Mapper logo
CJA - Airport
Location
City:  Cajamarca, Perú
Name:Major General FAP Armando Revoredo Iglesias
ICAO / IATA:SPJR / CJA

Details
Type:Airport (Aerodrome, Airfield)
Latitude:7°08'21"S (-7.139182)
Longitude:78°29'22"W (-78.489399)
Datum:WGS 1984
Elevation:8781 ft (2676 m)
Variation:1.57°W (WMM2015 magnetic declination)
-0.16° annual change
Runways:1
Longest:8202 × 148 ft (2500 × 45 m), paved

Time
Time Zone:UTC-5
Local Time:

Weather
METAR:SPJR 311830Z VRB02KT 9999 SCT030 BKN043 20/11 Q1026
TAF:SPJR 311705Z 3118/0118 33003KT 9999 SCT030 BKN043 TX20/3119Z TN10/0111Z
BECMG 3120/3122 8000 RA SCT025 OVC040
FM010200 00000KT 9999 SCT025 BKN040 PROB30 0110/0113 8000 RA SCT020 OVC037

Related Locations
Nearby:
Farthest:PAN: 12426 mi / 19997 km
Pattani, TH

Find:

   beyond  
but within

Other Information
Maps:
NOTAMs:
Links:
Sources:

  
flag of Perú   

Sectional Chart

Flight Planning
at skyvector.com

Satellite Image

Google Maps Satellite View

 

Copyright © 2004-2015 Karl L. Swartz. All rights reserved.
The Great Circle Mapper name and logo are trademarks of the Great Circle Mapper.
All other trademarks mentioned herein belong to their respective owners.
Please see credits for attibutions and further copyright information.

  Follow gcmap on Facebook Follow gcmap on Twitter

hCard Microformat

Geo Microformat